Location: Kirtland Hills
(41.6239°N, 81.3071°W)
Time: 09:01:46
(UTC+00:00)

Cosmos 1689 Rocket - Pass Details

Date: 29 October 2020
Orbit: 360 x 375 km, 97.5° (Epoch: 27 November)

Event Time Altitude Azimuth Distance (km) Brightness Sun altitude
Rises 22:54:45 0° 27° (NNE) 2,204 5.5 -6.6°
Reaches altitude 10° 22:57:00 10° 45° (NE) 1,351 4.3 -7.0°
Maximum altitude 22:59:14 20° 96° (E) 902 3.4 -7.4°
Drops below altitude 10° 23:01:27 10° 147° (SSE) 1,340 4.6 -7.8°
Sets 23:03:41 0° 165° (SSE) 2,181 5.9 -8.2°
